N0KWA Weather Reports


Display with metric or nautical units.
time (UTC)temp
F
wind
direction
speed
MPH
gust
MPH
rain 1hr
in
rain 24hr
in
rain mn
in
humidity
%
barometer
mb
20260504130447 54 36 0.0 0.0 0.00 0.00 0.00 99 1020.4
20260504110334 49 36 0.0 0.0 0.00 0.00 0.00 99 1019.9
20260504100246 50 36 0.0 0.0 0.00 0.00 0.00 99 1019.7
20260504081639 51 36 0.0 0.0 0.00 0.00 0.00 99 1019.8
20260504081136 51 36 0.0 0.0 0.00 0.00 0.00 99 1019.9
20260504080632 51 36 0.0 0.0 0.00 0.00 0.00 99 1020.0
20260504080129 51 36 0.0 0.0 0.00 0.00 0.00 99 1019.9
20260504050445 55 36 0.0 0.0 0.00 0.00 0.00 99 1021.2
20260504045942 55 36 0.0 0.0 0.00 0.00 0.00 99 1021.1
20260504045437 55 36 0.0 0.0 0.00 0.00 0.00 99 1021.2
20260504044934 55 36 0.0 0.0 0.00 0.00 0.00 99 1021.2
20260504044431 55 36 0.0 0.0 0.00 0.00 0.00 98 1021.1
20260504043929 55 36 0.0 0.0 0.00 0.00 0.00 98 1021.2
20260504043425 55 36 0.0 0.0 0.00 0.00 0.00 98 1021.2
20260504042918 55 36 0.0 0.0 0.00 0.00 0.00 98 1021.2
20260504042414 55 36 0.0 0.0 0.00 0.00 0.00 98 1021.1
20260504041910 55 36 0.0 0.0 0.00 0.00 0.00 98 1021.2
20260504041407 56 30 0.0 0.0 0.00 0.00 0.00 97 1021.0
20260504040903 56 36 0.0 0.0 0.00 0.00 0.00 97 1021.0
20260504040400 56 36 0.0 0.0 0.00 0.00 0.00 96 1021.0
20260504035856 56 36 0.0 0.0 0.00 0.00 0.00 96 1021.1
20260504035354 56 36 0.0 0.0 0.00 0.00 0.00 96 1021.0
20260504034850 57 36 0.0 0.0 0.00 0.00 0.00 95 1021.1
20260504034348 57 36 0.0 0.0 0.00 0.00 0.00 95 1021.2
20260504033844 57 36 0.0 0.0 0.00 0.00 0.00 95 1020.9
20260504033343 57 36 0.0 0.0 0.00 0.00 0.00 95 1021.0
20260504032839 57 36 0.0 0.0 0.00 0.00 0.00 95 1021.0
20260504032336 57 36 0.0 0.0 0.00 0.00 0.00 94 1021.0
20260504031833 57 36 0.0 0.0 0.00 0.00 0.00 94 1021.0
20260504031331 57 36 0.0 0.0 0.00 0.00 0.00 94 1021.0
20260504030826 58 36 0.0 0.0 0.00 0.00 0.00 93 1021.0
20260504030324 58 36 0.0 0.0 0.00 0.00 0.00 93 1021.2
20260504025820 58 36 0.0 0.0 0.00 0.00 0.00 92 1021.0
20260504025317 58 36 0.0 0.0 0.00 0.00 0.00 91 1021.1
20260504024814 59 36 0.0 0.0 0.00 0.00 0.00 91 1021.0
20260504024310 59 36 0.0 0.0 0.00 0.00 0.00 91 1020.9
20260504023807 59 36 0.0 0.0 0.00 0.00 0.00 91 1021.0
20260504023304 59 36 0.0 0.0 0.00 0.00 0.00 90 1020.9
20260504022759 59 36 0.0 0.0 0.00 0.00 0.00 89 1020.6
20260504022256 59 37 0.0 0.0 0.00 0.00 0.00 89 1020.8
20260504021753 60 37 0.0 0.0 0.00 0.00 0.00 88 1020.7
20260504021251 60 36 0.0 0.0 0.00 0.00 0.00 88 1020.7
20260504020747 60 36 0.0 0.0 0.00 0.00 0.00 88 1020.7
20260504020244 60 37 0.0 0.0 0.00 0.00 0.00 87 1020.4
20260504015740 60 37 0.0 0.0 0.00 0.00 0.00 87 1020.6
20260504015236 61 37 0.0 0.0 0.00 0.00 0.00 86 1020.3
20260504014732 62 36 0.0 0.0 0.00 0.00 0.00 85 1020.3
20260504014229 62 36 0.0 0.0 0.00 0.00 0.00 84 1020.4
20260504013727 62 36 0.0 0.0 0.00 0.00 0.00 84 1020.4
20260504013224 62 36 0.0 0.0 0.00 0.00 0.00 83 1020.3
20260504012720 62 37 0.0 0.0 0.00 0.00 0.00 83 1020.2
20260504012219 62 36 0.0 0.0 0.00 0.00 0.00 83 1020.2
20260504011715 63 36 0.0 0.0 0.00 0.00 0.00 81 1020.1
20260504011212 63 36 0.0 0.0 0.00 0.00 0.00 79 1020.1
20260504010708 64 36 0.0 0.0 0.00 0.00 0.00 79 1020.0
20260504010204 64 37 0.0 0.0 0.00 0.00 0.00 80 1020.1
20260504005700 64 37 0.0 0.0 0.00 0.00 0.00 78 1020.1
20260504005157 65 37 0.0 0.0 0.00 0.00 0.00 76 1019.9
20260504004655 65 37 0.0 0.0 0.00 0.00 0.00 74 1019.9
20260504004152 66 37 0.0 0.0 0.00 0.00 0.00 73 1019.8
20260504003648 66 341 0.0 0.0 0.00 0.00 0.00 75 1019.9
20260504003146 66 341 0.0 0.0 0.00 0.00 0.00 71 1019.9
20260504002642 67 341 0.0 0.0 0.00 0.00 0.00 69 1019.9
20260504002140 68 30 0.0 0.0 0.00 0.00 0.00 67 1019.8
20260504001638 68 30 0.0 0.0 0.00 0.00 0.00 64 1019.9
20260504001133 68 34 0.0 0.0 0.00 0.00 0.00 64 1019.9
20260504000631 69 30 0.0 0.0 0.00 0.00 0.00 64 1019.8
20260504000128 69 341 0.0 0.0 0.00 0.00 0.00 63 1019.7
20260503235626 70 341 0.0 0.0 0.00 0.00 0.00 62 1019.7
20260503235122 70 30 0.0 0.0 0.00 0.00 0.00 62 1019.7
20260503234620 71 30 0.0 0.0 0.00 0.00 0.00 62 1019.8
20260503234118 71 341 0.0 0.0 0.00 0.00 0.00 58 1019.8
20260503233615 71 341 0.0 0.0 0.00 0.00 0.00 56 1019.8
20260503233111 71 30 0.0 0.0 0.00 0.00 0.00 57 1019.8
20260503232608 72 30 0.0 0.0 0.00 0.00 0.00 56 1019.8
20260503232105 72 30 0.0 0.0 0.00 0.00 0.00 53 1019.9
20260503231603 73 341 0.0 0.0 0.00 0.00 0.00 53 1019.9
20260503231059 73 34 0.0 0.0 0.00 0.00 0.00 52 1019.8
20260503230556 73 33 0.0 0.0 0.00 0.00 0.00 48 1019.8
20260503230053 73 33 0.0 0.0 0.00 0.00 0.00 50 1019.9
20260503225550 73 34 0.0 0.0 0.00 0.00 0.00 53 1019.9
20260503225045 74 32 0.0 0.0 0.00 0.00 0.00 54 1019.7
20260503224542 74 37 0.0 0.0 0.00 0.00 0.00 50 1019.9
20260503224041 74 36 0.0 0.0 0.00 0.00 0.00 46 1019.9
20260503223539 75 36 0.0 0.0 0.00 0.00 0.00 45 1020.0
20260503223034 75 25 0.0 0.0 0.00 0.00 0.00 41 1020.0
20260503222532 75 34 0.0 0.0 0.00 0.00 0.00 47 1020.1
20260503222029 75 36 0.0 0.0 0.00 0.00 0.00 44 1019.9
20260503221527 75 39 0.0 1.0 0.00 0.00 0.00 46 1019.7
20260503221025 74 11 0.0 0.0 0.00 0.00 0.00 43 1019.9
20260503220520 75 39 0.0 0.0 0.00 0.00 0.00 45 1020.0
20260503220017 75 353 0.0 0.0 0.00 0.00 0.00 45 1020.2
20260503215515 74 36 0.0 0.0 0.00 0.00 0.00 46 1020.3
20260503215012 74 39 0.0 1.0 0.00 0.00 0.00 43 1020.4
20260503214510 74 40 1.0 1.0 0.00 0.00 0.00 47 1020.5
20260503214006 74 5 0.0 0.0 0.00 0.00 0.00 45 1020.5
20260503213505 74 1 0.0 0.0 0.00 0.00 0.00 48 1020.5
20260503213001 74 14 0.0 0.0 0.00 0.00 0.00 48 1020.7
20260503212458 74 36 0.0 0.0 0.00 0.00 0.00 46 1020.8
20260503211955 74 34 0.0 0.0 0.00 0.00 0.00 47 1020.8
20260503211453 75 20 0.0 0.0 0.00 0.00 0.00 47 1020.8
20260503210948 75 20 0.0 0.0 0.00 0.00 0.00 47 1020.9
20260503210445 74 33 0.0 0.0 0.00 0.00 0.00 48 1020.8
20260503205939 75 16 0.0 0.0 0.00 0.00 0.00 45 1021.0
20260503205437 75 33 1.0 1.0 0.00 0.00 0.00 44 1021.1
20260503204933 76 352 0.0 0.0 0.00 0.00 0.00 43 1020.9
20260503204430 76 40 1.0 1.0 0.00 0.00 0.00 42 1021.2
20260503203927 76 36 0.0 0.0 0.00 0.00 0.00 41 1021.3
20260503203425 76 358 0.0 0.0 0.00 0.00 0.00 44 1021.4
20260503202921 76 38 0.0 0.0 0.00 0.00 0.00 45 1021.3
20260503202420 76 357 0.0 0.0 0.00 0.00 0.00 42 1021.4
20260503201918 77 352 0.0 0.0 0.00 0.00 0.00 40 1021.5
20260503201415 77 352 0.0 0.0 0.00 0.00 0.00 41 1021.5
20260503200912 76 352 0.0 0.0 0.00 0.00 0.00 42 1021.5
20260503200408 77 15 0.0 0.0 0.00 0.00 0.00 40 1021.8
20260503195905 76 352 1.0 1.0 0.00 0.00 0.00 44 1021.9
20260503195402 75 26 0.0 0.0 0.00 0.00 0.00 40 1022.1
20260503194859 75 40 0.0 1.0 0.00 0.00 0.00 41 1022.1
20260503194355 75 352 0.0 0.0 0.00 0.00 0.00 42 1022.1
20260503193851 76 350 1.0 2.0 0.00 0.00 0.00 43 1022.3
20260503193347 75 352 0.0 0.0 0.00 0.00 0.00 42 1022.3
20260503192843 75 352 0.0 1.0 0.00 0.00 0.00 40 1022.4
20260503192339 75 44 0.0 1.0 0.00 0.00 0.00 43 1022.6
20260503191835 75 352 0.0 1.0 0.00 0.00 0.00 44 1022.5
20260503191332 75 359 0.0 0.0 0.00 0.00 0.00 42 1022.4
20260503190829 75 36 0.0 0.0 0.00 0.00 0.00 42 1022.6
20260503190326 75 40 0.0 0.0 0.00 0.00 0.00 44 1022.8
20260503185823 75 33 0.0 0.0 0.00 0.00 0.00 41 1022.8
20260503185320 75 27 0.0 0.0 0.00 0.00 0.00 39 1022.9
20260503184820 75 352 0.0 0.0 0.00 0.00 0.00 41 1023.0
20260503184316 75 13 0.0 0.0 0.00 0.00 0.00 41 1023.0
20260503183811 75 353 0.0 0.0 0.00 0.00 0.00 44 1023.1
20260503183309 75 12 0.0 0.0 0.00 0.00 0.00 43 1023.1
20260503182806 75 354 0.0 1.0 0.00 0.00 0.00 41 1023.2
20260503182306 74 11 1.0 1.0 0.00 0.00 0.00 40 1023.4
20260503181802 75 38 0.0 1.0 0.00 0.00 0.00 42 1023.4
20260503181259 74 40 0.0 0.0 0.00 0.00 0.00 41 1023.5
20260503180755 74 10 0.0 1.0 0.00 0.00 0.00 44 1023.6
20260503180254 74 22 0.0 0.0 0.00 0.00 0.00 45 1023.3
20260503175749 74 356 1.0 1.0 0.00 0.00 0.00 45 1023.6
20260503175248 74 38 0.0 0.0 0.00 0.00 0.00 42 1023.4
20260503174743 73 32 0.0 1.0 0.00 0.00 0.00 48 1023.6
20260503174242 74 353 1.0 1.0 0.00 0.00 0.00 43 1023.5
20260503173737 74 356 1.0 1.0 0.00 0.00 0.00 42 1023.7
20260503173233 73 10 0.0 0.0 0.00 0.00 0.00 41 1023.7
20260503172730 73 352 0.0 0.0 0.00 0.00 0.00 40 1023.8
20260503172227 73 40 0.0 0.0 0.00 0.00 0.00 44 1024.0
20260503171723 73 33 0.0 1.0 0.00 0.00 0.00 47 1024.2
20260503171221 72 353 0.0 0.0 0.00 0.00 0.00 43 1024.3
20260503170718 72 29 0.0 1.0 0.00 0.00 0.00 44 1024.4
20260503170215 72 33 0.0 0.0 0.00 0.00 0.00 47 1024.5
20260503160136 71 38 0.0 0.0 0.00 0.00 0.00 42 1024.8
20260503150605 67 353 0.0 0.0 0.00 0.00 0.00 56 1024.8